Location: Krakow
(50.0830°N, 19.9170°E)
Time: 12:32:15
(UTC+02:00)

Tiros 1 - Pass Details

Date: 16 February 2023
Orbit: 627 x 662 km, 48.4° (Epoch: 26 March)

Event Time Altitude Azimuth Distance (km) Brightness Sun altitude
Rises 01:59:55 0° 276° (W) 2,915 - -44.5°
Reaches altitude 10° 02:03:39 10° 246° (WSW) 2,008 - -44.0°
Maximum altitude 02:05:22 12° 224° (SW) 1,881 - -43.8°
Drops below altitude 10° 02:07:05 10° 202° (SSW) 2,009 - -43.6°
Sets 02:10:50 0° 171° (S) 2,920 - -43.2°
